MST,Max TemperatureF,Mean TemperatureF,Min TemperatureF,Max Dew PointF,MeanDew PointF,Min DewpointF,Max Humidity, Mean Humidity, Min Humidity, Max Sea Level PressureIn, Mean Sea Level PressureIn, Min Sea Level PressureIn, Max VisibilityMiles, Mean VisibilityMiles, Min VisibilityMiles, Max Wind SpeedMPH, Mean Wind SpeedMPH, Max Gust SpeedMPH,PrecipitationIn, CloudCover, Events, WindDirDegrees
2013-2-1,50,38,25,31,23,17,92,61,29,30.25,30.15,30.00,10,10,10,15,10,18,T,4,,274
2013-2-2,53,37,21,24,20,16,88,56,24,30.38,30.30,30.21,10,10,10,20,9,29,0.00,0,,274
2013-2-3,51,39,27,23,18,14,63,45,27,30.26,30.03,29.89,10,10,10,18,9,22,0.00,0,,258
2013-2-4,56,40,23,16,13,6,68,42,15,30.02,29.93,29.83,10,10,10,21,10,25,0.00,0,,283
2013-2-5,53,39,24,20,17,15,68,46,24,30.09,29.96,29.81,10,10,10,22,9,32,0.00,0,,217
2013-2-6,57,44,31,25,21,17,64,43,22,30.04,29.85,29.75,10,10,10,28,13,32,0.00,4,,305
2013-2-7,46,34,22,26,19,12,92,61,30,30.21,30.15,30.04,10,10,10,17,9,22,0.00,0,,278
2013-2-8,56,43,29,22,18,14,59,41,22,30.06,29.85,29.68,10,10,10,28,16,35,0.00,0,,179
2013-2-9,42,30,18,23,21,14,88,67,45,29.71,29.58,29.47,10,10,10,30,13,36,0.00,3,,324
2013-2-10,33,24,15,21,18,9,96,75,54,30.15,29.70,29.47,10,6,1,38,26,47,T,6,Snow,323
2013-2-11,29,20,10,15,11,7,84,65,46,30.23,30.17,30.10,10,10,10,14,7,18,0.00,5,,199
2013-2-12,41,27,12,13,9,5,88,55,21,30.17,30.12,30.05,10,10,7,22,12,25,0.00,0,,300
2013-2-13,50,34,17,22,12,7,67,45,22,30.08,30.00,29.90,10,10,10,37,15,45,0.00,0,,290
2013-2-14,30,22,14,27,20,8,92,75,57,30.41,30.19,30.02,10,6,0,32,15,39,0.01,6,Fog-Snow,326
2013-2-15,32,23,13,21,16,7,91,77,63,30.45,30.34,30.25,10,7,1,15,10,17,T,7,Snow,308
2013-2-16,56,39,21,19,16,13,74,47,20,30.31,30.12,29.95,10,10,10,30,15,39,0.00,1,,295
2013-2-17,63,45,26,22,7,-14,63,34,4,29.92,29.70,29.48,10,10,10,33,14,41,0.00,0,,237
2013-2-18,40,28,15,19,16,11,81,58,35,30.19,30.00,29.73,10,10,2,12,17,14,T,3,Snow,323
2013-2-19,43,29,15,19,14,11,92,61,30,30.22,30.09,29.91,10,10,10,32,10,38,0.00,0,,140
2013-2-20,25,20,14,23,18,10,96,82,68,29.92,29.77,29.68,10,5,1,28,19,35,T,7,Snow,111
2013-2-21,18,15,12,14,11,9,92,86,80,30.02,29.81,29.68,10,4,1,17,12,21,0.04,8,Snow,30
2013-2-22,30,20,9,19,13,7,96,80,63,30.09,29.99,29.81,10,8,2,16,12,17,0.00,2,,262
2013-2-23,43,30,16,23,15,7,81,57,33,29.95,29.80,29.69,10,10,10,15,11,18,0.00,0,,190
2013-2-24,32,28,23,28,25,21,92,81,69,30.14,29.94,29.70,10,3,0,29,15,35,0.04,8,Fog-Snow,3
2013-2-25,26,18,10,19,13,2,96,80,63,30.19,30.08,29.99,10,10,10,18,10,21,0.00,2,,304
2013-2-26,32,21,9,27,17,1,92,79,66,30.12,29.96,29.78,10,8,2,28,15,32,T,5,Snow,319
2013-2-27,32,23,13,23,17,6,92,73,54,30.35,30.25,30.08,10,9,2,25,19,30,T,2,Snow,325
2013-2-28,38,24,10,21,14,5,76,60,44,30.38,30.32,30.27,10,10,10,24,14,28,0.00,2,,305